Regional Weather Roundup
Issued by NWS Spokane, WA

Home | Current Version | Previous Version | Text Only | Print | Product List | Glossary On
Versions: 1 2 3 4 5 6 7 8 9 10 11 12 13 14 15 16 17 18 19 20 21 22 23 24 25 26 27 28 29 30 31 32 33 34 35 36 37 38 39 40 41 42 43 44 45 46 47 48 49 50
744
NZUS01 KOTX 090410
RWROTX
EASTERN WASHINGTON/NORTHERN IDAHO ROUNDUP
NATIONAL WEATHER SERVICE, SPOKANE WA
800 PM PST MON FEB 08 2016

Note: "fair" indicated few or no clouds below 12,000 feet with no
significant weather and/or obstructions to visibility.

...NORTHEAST WASHINGTON AND NORTHERN IDAHO PANHANDLE...

CITY           SKY/WX    TMP DP  RH WIND       PRES   REMARKS
SPOKANE INTL   PTCLDY    36  30  79 N5        30.51S
SPOKANE DOWNTO PTCLDY    36  32  85 CALM      30.53S
COEUR D ALENE  PTCLDY    36  28  75 NE9       30.50S
DEER PARK      PTCLDY    30  27  88 N6        30.53S WCI  24
SANDPOINT      PTCLDY    32  30  93 CALM      30.55S
BONNERS FERRY  FAIR      32  27  80 CALM      30.57S

...SOUTHEAST WASHINGTON AND SOUTHERN IDAHO PANHANDLE...

CITY           SKY/WX    TMP DP  RH WIND       PRES   REMARKS
WALLA WALLA    CLEAR     37  34  89 SE3       30.51F
PULLMAN/MOSCOW CLEAR     42  34  73 NE5       30.51S
LEWISTON       CLEAR     43  34  70 S6        30.50S
LOWELL           N/A     36  33  89 N5        30.59R

...COLUMBIA BASIN...

CITY           SKY/WX    TMP DP  RH WIND       PRES   REMARKS
EPHRATA        PTCLDY    38  29  70 NW10      30.53F
MOSES LAKE     PTCLDY    36  30  79 N8        30.54F
TRI CITIES     CLEAR     36  31  82 N5        30.55S
HERMISTON      CLEAR     36  32  85 S3        30.52S
PENDLETON      CLEAR     36  32  85 CALM      30.50S

...EAST SLOPES CASCADES...

CITY           SKY/WX    TMP DP  RH WIND       PRES   REMARKS
THE DALLES     CLEAR     43  35  73 W3        30.54R
YAKIMA         CLEAR     38  30  73 W7        30.54S
ELLENSBURG     CLEAR     30  25  81 N5        30.53F WCI  25
WENATCHEE      PTCLDY    35  28  75 NW3       30.56F
OMAK           PTCLDY    25  22  88 CALM      30.58F

...SOUTHERN BRITISH COLUMBIA...

CITY           SKY/WX    TMP DP  RH WIND       PRES   REMARKS
PENTICTON      MOCLDY    28  28 100 CALM      30.59S

...WESTERN MONTANA...

CITY           SKY/WX    TMP DP  RH WIND       PRES   REMARKS
MISSOULA       CLEAR     32  26  78 CALM      30.54R

...NEIGHBORING CITIES...

CITY           SKY/WX    TMP DP  RH WIND       PRES   REMARKS
SEATTLE        PTCLDY    49  43  80 N12       30.31F
CALGARY        PTCLDY    46  25  42 VRB2      30.23S



USA.gov is the U.S. government's official web portal to all federal, state and local government web resources and services.